Flag for U.S.A. Weather past 2 weeks in Lincoln, Nebraska, U.S.A.

Now
63 °F

Low clouds.


Feels Like: 63 °F
Forecast: 58 / 85 °F
Wind: 7 mph from Southwest

Location: Lincoln Municipal Airport

Current Time: Aug 30, 2015 at 7:55:17 AM

Latest Report: Aug 30, 2015 at 6:54 AM


Visibility: 7 mi

Pressure: 30.03 "Hg

Humidity: 93%

Dew point: 61 °F

Location of LincolnLocation

Historic Weather in Lincoln — Graph

°F

Lincoln temperature yesterday

Maximum temperature yesterday: 73 °F (at 2:54 PM)
Minimum temperature yesterday: 61 °F (at 7:54 AM)
Average temperature yesterday: 66 °F

Past Weeks' High & Low Weather Summary

 TemperatureHumidityPressure
High93 °F (Aug 16, 3:54 PM)97% (Aug 29, 7:54 AM)30.20 "Hg (Aug 29, 7:54 AM)
Low47 °F (Aug 24, 4:54 AM)30% (Aug 24, 1:54 PM)29.69 "Hg (Aug 18, 7:54 AM)
Average71 °F70%29.96 "Hg
* Reported Aug 15 5:54 AM — Aug 30 5:54 AM, Lincoln, Weather by CustomWeather, © 2015

Note: Actual official high and low records may vary slightly from our data, if they occured in-between our weather recording intervals... More about our weather records

Advertising

Lincoln weather history for previous 24 hours

 ConditionsComfort  
Time TempWeatherWind HumidityBarometerVisibility
5:54 AM
Sun, Aug 30
63 °FFog.7 mph93%30.02 "Hg6 mi
4:54 AM63 °FFog.6 mph93%30.02 "Hg6 mi
3:54 AM62 °FFog.5 mph96%30.02 "Hg2 mi
2:54 AM62 °FFog.6 mph96%30.02 "Hg4 mi
1:54 AM63 °FFog.3 mph90%30.05 "Hg5 mi
12:54 AM63 °FFog.8 mph90%30.05 "Hg5 mi
11:54 PM
Sat, Aug 29
64 °FFog.8 mph90%30.05 "Hg6 mi
10:54 PM64 °FLow clouds.12 mph90%30.05 "Hg7 mi
9:54 PM64 °FClear.8 mph90%30.05 "Hg8 mi
8:54 PM66 °FSunny.7 mph84%30.04 "Hg10 mi
7:54 PM68 °FSunny.6 mph82%30.03 "Hg10 mi
6:54 PM70 °FSunny.6 mph76%30.02 "Hg10 mi
5:54 PM73 °FSunny.6 mph71%30.03 "Hg10 mi
4:54 PM73 °FSunny.6 mph71%30.03 "Hg10 mi
3:54 PM73 °FSunny.6 mph71%30.04 "Hg10 mi
2:54 PM73 °FPassing clouds.7 mph69%30.05 "Hg9 mi
2:01 PM70 °FOvercast.5 mph73%30.09 "Hg10 mi
12:54 PM67 °FOvercast.7 mph79%30.08 "Hg10 mi
11:54 AM65 °FLow clouds.7 mph87%30.08 "Hg8 mi
10:54 AM63 °FLow clouds.7 mph90%30.08 "Hg8 mi
9:54 AM62 °FLow clouds.10 mph90%30.07 "Hg9 mi
8:54 AM61 °FFog.10 mph93%30.06 "Hg6 mi
7:54 AM61 °FDrizzle. Low clouds.12 mph97%30.06 "Hg1 mi
Weather by CustomWeather, © 2015

See weather overviewHow to use our weather pages